SL-14 R/B

Satellite information

Favourite Embed

Satellite Type and Status

ROCKET BODYIN ORBIT

Key statistics

Satellite SL-14 R/B at a glance.

Uptime

11861

Days in orbit

Revolutions

≈ 12.5

Per day

Orbit

LEO

Low Earth Orbit

Inclination

82.6

Latest

Satellite identification and parameters

Extended collection of information and parameters for SL-14 R/B.

Object identification

Identified? True

Debris? False

Object name: SL-14 R/B

International designator: 1993-038G

Object number (NORAD): 22693

Object ID (CCSDS): 22693

Country: COMMONWEALTH OF INDEPENDENT STATES (CIS)

Current information (Y/N): Y

RCS size: LARGE

Orbital parameters

Period: 114.756 minutes

Inclination: 82.5849 deg

SMA: 7822.482 km

Apoapsis: 1480.441 km

Periapsis: 1408.252 km

RAAN: 107.1717 deg

Eccentricy: 0.00461418

Argument of periapsis: 22.7871 deg

Mean anomaly: 352.3545 deg

Mean motion: 12.54833016 rev/day

Mean motion (dot): 0.00000032 rev/day2

B* drag term: 0.00013034698 1/REarth

Two-line elements (TLE)

Creation date: Dec. 12, 2025, 10:14 a.m.

Reference frame: TEME

Reference center: EARTH

Epoch: Dec. 12, 2025, 7:39 a.m. UTC

TLE line 0: 0 SL-14 R/B

TLE line 1: 1 22693U 93038G 25346.31908802 .00000032 00000-0 13035-3 0 9996

TLE line 2: 2 22693 82.5849 107.1717 0046142 22.7871 352.3545 12.54833016487580

Live tracking on map

Real-time ground track for satellite SL-14 R/B.

In-orbit conjunctions

A list of the most updated potential collisions computed for object SL-14 R/B.

Target Orbit TCA Probability of collision Miss distance Type
FENGYUN 1C DEB SSO 2025-04-16 20:43:37 0.0001477495 89.0 (m) DEBRIS

Associated space launch

Second generation store-dump military communications satellites

SL-14 R/B was lifted into orbit during the mission ‘Tsiklon-3 | Strela-3 95 to 100’, on board a Tsiklon-3 space rocket.

The launch took place on June 24, 1993, 4:12 a.m. from 32/1.

For more information about the launch, click the button.

Launch to space Tsiklon-3 | Strela-3 95 to 100
Tsiklon-3 | Strela-3 95 to 100

Agency: N/A

Status: Launch Successful

Launch date: June 24, 1993, 4:12 a.m. UTC

Rocket: Tsiklon-3

Launch pad: 32/1

Location: Plesetsk Cosmodrome, Russian Federation

...

Latest news about this satellite

There are no fresh news available about this satellite. Check back as we update our databases every day.


Newsletter sign-up

Weekly statistics, charts and insights to help you stay on top of the space industry.